| time (UTC) | temp F | wind direction | speed MPH | gust MPH | rain 1hr in | rain 24hr in | rain mn in | humidity % | barometer mb |
| 20260904235843 | 77 | 340 | 1.0 | 5.0 | 0.00 | 0.00 | 0.00 | 43 | 1011.7 |
| 20260904235336 | 76 | 280 | 1.0 | 5.0 | 0.00 | 0.00 | 0.00 | 43 | 1011.8 |
| 20260904234834 | 76 | 351 | 2.0 | 7.0 | 0.00 | 0.00 | 0.00 | 44 | 1011.9 |
| 20260904234558 | 76 | 318 | 2.0 | 7.0 | 0.00 | 0.00 | 0.00 | 42 | 1012.1 |
| 20260904233830 | 76 | 294 | 2.0 | 6.0 | 0.00 | 0.00 | 0.00 | 43 | 1012.1 |
| 20260904233327 | 76 | 28 | 2.0 | 11.0 | 0.00 | 0.00 | 0.00 | 45 | 1012.2 |
| 20260904232829 | 75 | 269 | 2.0 | 11.0 | 0.00 | 0.00 | 0.00 | 44 | 1012.2 |
| 20260904232325 | 75 | 273 | 2.0 | 8.0 | 0.00 | 0.00 | 0.00 | 43 | 1012.5 |
| 20260904231826 | 75 | 319 | 2.0 | 7.0 | 0.00 | 0.00 | 0.00 | 45 | 1012.6 |
| 20260904231318 | 74 | 302 | 1.0 | 7.0 | 0.00 | 0.00 | 0.00 | 45 | 1012.6 |
| 20260904231027 | 74 | 271 | 1.0 | 5.0 | 0.00 | 0.00 | 0.00 | 47 | 1012.8 |
| 20260904230304 | 74 | 37 | 1.0 | 5.0 | 0.00 | 0.00 | 0.00 | 46 | 1012.8 |
| 20260904225752 | 73 | 323 | 1.0 | 4.0 | 0.00 | 0.00 | 0.00 | 48 | 1012.8 |
| 20260904225248 | 73 | 329 | 1.0 | 6.0 | 0.00 | 0.00 | 0.00 | 49 | 1012.7 |
| 20260904225004 | 72 | 327 | 1.0 | 6.0 | 0.00 | 0.00 | 0.00 | 49 | 1012.8 |
| 20260904224454 | 72 | 330 | 0.0 | 2.0 | 0.00 | 0.00 | 0.00 | 50 | 1012.8 |
| 20260904223724 | 71 | 328 | 0.0 | 3.0 | 0.00 | 0.00 | 0.00 | 51 | 1013.1 |
| 20260904223215 | 71 | 308 | 1.0 | 7.0 | 0.00 | 0.00 | 0.00 | 49 | 1013.3 |
| 20260904222704 | 71 | 316 | 0.0 | 5.0 | 0.00 | 0.00 | 0.00 | 51 | 1013.5 |
| 20260904222159 | 71 | 341 | 0.0 | 4.0 | 0.00 | 0.00 | 0.00 | 51 | 1013.6 |
| 20260904221653 | 70 | 340 | 0.0 | 4.0 | 0.00 | 0.00 | 0.00 | 52 | 1013.6 |
| 20260904221152 | 70 | 340 | 0.0 | 5.0 | 0.00 | 0.00 | 0.00 | 51 | 1013.7 |
| 20260904220646 | 70 | 340 | 0.0 | 5.0 | 0.00 | 0.00 | 0.00 | 52 | 1013.7 |
| 20260904220400 | 70 | 0 | 0.0 | 1.0 | 0.00 | 0.00 | 0.00 | 51 | 1013.7 |
| 20260904215844 | 69 | 0 | 0.0 | 1.0 | 0.00 | 0.00 | 0.00 | 52 | 1013.8 |
| 20260904215103 | 69 | 0 | 0.0 | 0.0 | 0.00 | 0.00 | 0.00 | 54 | 1013.7 |
| 20260904214602 | 68 | 0 | 0.0 | 0.0 | 0.00 | 0.00 | 0.00 | 55 | 1013.7 |
| 20260904214053 | 68 | 0 | 0.0 | 2.0 | 0.00 | 0.00 | 0.00 | 55 | 1013.6 |
| 20260904213820 | 67 | 0 | 0.0 | 2.0 | 0.00 | 0.00 | 0.00 | 56 | 1013.7 |
| 20260904213055 | 67 | 0 | 0.0 | 2.0 | 0.00 | 0.00 | 0.00 | 55 | 1013.9 |
| 20260904212803 | 67 | 0 | 0.0 | 2.0 | 0.00 | 0.00 | 0.00 | 55 | 1013.8 |
| 20260904212252 | 67 | 0 | 0.0 | 1.0 | 0.00 | 0.00 | 0.00 | 57 | 1013.7 |
| 20260904211504 | 66 | 0 | 0.0 | 2.0 | 0.00 | 0.00 | 0.00 | 56 | 1013.6 |
| 20260904211213 | 66 | 0 | 0.0 | 3.0 | 0.00 | 0.00 | 0.00 | 57 | 1013.6 |
| 20260904210448 | 65 | 0 | 0.0 | 3.0 | 0.00 | 0.00 | 0.00 | 57 | 1013.7 |
| 20260904205942 | 65 | 15 | 0.0 | 2.0 | 0.00 | 0.00 | 0.00 | 58 | 1013.6 |
| 20260904205653 | 64 | 15 | 0.0 | 2.0 | 0.00 | 0.00 | 0.00 | 59 | 1013.5 |
| 20260904204923 | 64 | 16 | 0.0 | 0.0 | 0.00 | 0.00 | 0.00 | 59 | 1013.7 |
| 20260904204639 | 63 | 16 | 0.0 | 0.0 | 0.00 | 0.00 | 0.00 | 59 | 1013.8 |
| 20260904203906 | 63 | 16 | 0.0 | 0.0 | 0.00 | 0.00 | 0.00 | 59 | 1013.7 |
| 20260904203400 | 63 | 16 | 0.0 | 1.0 | 0.00 | 0.00 | 0.00 | 59 | 1013.7 |
| 20260904203107 | 63 | 16 | 0.0 | 2.0 | 0.00 | 0.00 | 0.00 | 59 | 1013.8 |
| 20260904202952 | 63 | 16 | 0.0 | 2.0 | 0.00 | 0.00 | 0.00 | 59 | 1013.8 |
| 20260904201850 | 63 | 16 | 0.0 | 8.0 | 0.00 | 0.00 | 0.00 | 60 | 1013.6 |
| 20260904201341 | 63 | 16 | 0.0 | 8.0 | 0.00 | 0.00 | 0.00 | 59 | 1013.7 |
| 20260904200813 | 63 | 54 | 0.0 | 3.0 | 0.00 | 0.00 | 0.00 | 59 | 1013.7 |
| 20260904200307 | 63 | 54 | 0.0 | 8.0 | 0.00 | 0.00 | 0.00 | 60 | 1013.6 |
| 20260904195757 | 63 | 57 | 0.0 | 8.0 | 0.00 | 0.00 | 0.00 | 60 | 1013.5 |
| 20260904195254 | 63 | 355 | 0.0 | 2.0 | 0.00 | 0.00 | 0.00 | 60 | 1013.5 |
| 20260904194753 | 63 | 355 | 0.0 | 2.0 | 0.00 | 0.00 | 0.00 | 60 | 1013.5 |
| 20260904194254 | 63 | 355 | 0.0 | 3.0 | 0.00 | 0.00 | 0.00 | 61 | 1013.6 |
| 20260904193752 | 63 | 355 | 0.0 | 3.0 | 0.00 | 0.00 | 0.00 | 61 | 1013.6 |
| 20260904193246 | 63 | 355 | 0.0 | 2.0 | 0.00 | 0.00 | 0.00 | 61 | 1013.6 |
| 20260904192743 | 63 | 355 | 0.0 | 2.0 | 0.00 | 0.00 | 0.00 | 62 | 1013.4 |
| 20260904192236 | 63 | 355 | 0.0 | 2.0 | 0.00 | 0.00 | 0.00 | 62 | 1013.4 |
| 20260904191734 | 63 | 355 | 0.0 | 1.0 | 0.00 | 0.00 | 0.00 | 62 | 1013.3 |
| 20260904191212 | 63 | 355 | 0.0 | 1.0 | 0.00 | 0.00 | 0.00 | 62 | 1013.3 |
| 20260904190710 | 62 | 355 | 0.0 | 1.0 | 0.00 | 0.00 | 0.00 | 62 | 1013.5 |
| 20260904190431 | 63 | 355 | 0.0 | 1.0 | 0.00 | 0.00 | 0.00 | 63 | 1013.5 |
| 20260904185705 | 62 | 355 | 0.0 | 1.0 | 0.00 | 0.00 | 0.00 | 63 | 1013.4 |
| 20260904185204 | 62 | 355 | 0.0 | 1.0 | 0.00 | 0.00 | 0.00 | 64 | 1013.4 |
| 20260904184905 | 62 | 355 | 0.0 | 1.0 | 0.00 | 0.00 | 0.00 | 64 | 1013.4 |
| 20260904184357 | 62 | 355 | 0.0 | 2.0 | 0.00 | 0.00 | 0.00 | 64 | 1013.7 |
| 20260904183627 | 62 | 355 | 0.0 | 3.0 | 0.00 | 0.00 | 0.00 | 64 | 1013.7 |
| 20260904183116 | 62 | 355 | 0.0 | 1.0 | 0.00 | 0.00 | 0.00 | 64 | 1013.7 |
| 20260904182612 | 62 | 355 | 0.0 | 1.0 | 0.00 | 0.00 | 0.00 | 65 | 1013.7 |
| 20260904182106 | 62 | 355 | 0.0 | 1.0 | 0.00 | 0.00 | 0.00 | 65 | 1013.7 |
| 20260904181606 | 62 | 355 | 0.0 | 3.0 | 0.00 | 0.00 | 0.00 | 66 | 1013.8 |
| 20260904181258 | 61 | 355 | 0.0 | 3.0 | 0.00 | 0.00 | 0.00 | 67 | 1013.8 |
| 20260904180747 | 61 | 16 | 0.0 | 0.0 | 0.00 | 0.00 | 0.00 | 69 | 1013.8 |
| 20260904180008 | 60 | 16 | 0.0 | 0.0 | 0.00 | 0.00 | 0.00 | 70 | 1013.7 |
| 20260904175458 | 60 | 16 | 0.0 | 0.0 | 0.00 | 0.00 | 0.00 | 71 | 1013.6 |
| 20260904174948 | 60 | 16 | 0.0 | 0.0 | 0.00 | 0.00 | 0.00 | 71 | 1013.6 |
| 20260904174409 | 60 | 16 | 0.0 | 0.0 | 0.00 | 0.00 | 0.00 | 71 | 1013.5 |
| 20260904173901 | 60 | 16 | 0.0 | 0.0 | 0.00 | 0.00 | 0.00 | 72 | 1013.5 |
| 20260904173343 | 60 | 16 | 0.0 | 0.0 | 0.00 | 0.00 | 0.00 | 71 | 1013.6 |
| 20260904172843 | 60 | 16 | 0.0 | 0.0 | 0.00 | 0.00 | 0.00 | 71 | 1013.6 |
| 20260904172308 | 60 | 16 | 0.0 | 0.0 | 0.00 | 0.00 | 0.00 | 72 | 1013.6 |
| 20260904171800 | 59 | 16 | 0.0 | 0.0 | 0.00 | 0.00 | 0.00 | 72 | 1013.6 |
| 20260904171457 | 59 | 16 | 0.0 | 0.0 | 0.00 | 0.00 | 0.00 | 72 | 1013.7 |
| 20260904170951 | 59 | 16 | 0.0 | 0.0 | 0.00 | 0.00 | 0.00 | 72 | 1013.8 |
| 20260904170211 | 59 | 16 | 0.0 | 0.0 | 0.00 | 0.00 | 0.00 | 73 | 1013.8 |
| 20260904165655 | 59 | 16 | 0.0 | 0.0 | 0.00 | 0.00 | 0.00 | 73 | 1013.9 |
| 20260904165148 | 59 | 16 | 0.0 | 0.0 | 0.00 | 0.00 | 0.00 | 73 | 1013.9 |
| 20260904164626 | 58 | 16 | 0.0 | 0.0 | 0.00 | 0.00 | 0.00 | 73 | 1014.0 |
| 20260904164108 | 58 | 16 | 0.0 | 0.0 | 0.00 | 0.00 | 0.00 | 75 | 1014.0 |
| 20260904163601 | 58 | 16 | 0.0 | 0.0 | 0.00 | 0.00 | 0.00 | 76 | 1014.1 |
| 20260904163057 | 57 | 16 | 0.0 | 0.0 | 0.00 | 0.00 | 0.00 | 77 | 1014.2 |
| 20260904162554 | 57 | 16 | 0.0 | 0.0 | 0.00 | 0.00 | 0.00 | 80 | 1014.4 |
| 20260904162021 | 55 | 16 | 0.0 | 0.0 | 0.00 | 0.00 | 0.00 | 84 | 1014.4 |
| 20260904161507 | 55 | 16 | 0.0 | 0.0 | 0.00 | 0.00 | 0.00 | 84 | 1014.5 |
| 20260904161005 | 55 | 16 | 0.0 | 0.0 | 0.00 | 0.00 | 0.00 | 84 | 1014.7 |
| 20260904160501 | 54 | 16 | 0.0 | 0.0 | 0.00 | 0.00 | 0.00 | 84 | 1014.9 |
| 20260904155946 | 55 | 16 | 0.0 | 0.0 | 0.00 | 0.00 | 0.00 | 83 | 1015.0 |
| 20260904155436 | 55 | 16 | 0.0 | 0.0 | 0.00 | 0.00 | 0.00 | 82 | 1015.0 |
| 20260904154929 | 56 | 16 | 0.0 | 0.0 | 0.00 | 0.00 | 0.00 | 80 | 1015.1 |
| 20260904154646 | 57 | 16 | 0.0 | 0.0 | 0.00 | 0.00 | 0.00 | 79 | 1015.1 |
| 20260904153915 | 57 | 16 | 0.0 | 0.0 | 0.00 | 0.00 | 0.00 | 80 | 1015.2 |
| 20260904153404 | 57 | 16 | 0.0 | 0.0 | 0.00 | 0.00 | 0.00 | 80 | 1015.3 |
| 20260904152857 | 56 | 16 | 0.0 | 0.0 | 0.00 | 0.00 | 0.00 | 80 | 1015.3 |
| 20260904152333 | 56 | 16 | 0.0 | 0.0 | 0.00 | 0.00 | 0.00 | 81 | 1015.4 |
| 20260904151824 | 56 | 16 | 0.0 | 0.0 | 0.00 | 0.00 | 0.00 | 82 | 1015.4 |
| 20260904151258 | 56 | 16 | 0.0 | 0.0 | 0.00 | 0.00 | 0.00 | 81 | 1015.5 |
| 20260904151018 | 56 | 16 | 0.0 | 0.0 | 0.00 | 0.00 | 0.00 | 83 | 1015.5 |
| 20260904150229 | 55 | 16 | 0.0 | 0.0 | 0.00 | 0.00 | 0.00 | 84 | 1015.5 |
| 20260904145926 | 55 | 16 | 0.0 | 0.0 | 0.00 | 0.00 | 0.00 | 83 | 1015.6 |
| 20260904145427 | 56 | 16 | 0.0 | 0.0 | 0.00 | 0.00 | 0.00 | 82 | 1015.7 |
| 20260904144706 | 56 | 16 | 0.0 | 0.0 | 0.00 | 0.00 | 0.00 | 82 | 1015.8 |
| 20260904144412 | 56 | 16 | 0.0 | 0.0 | 0.00 | 0.00 | 0.00 | 83 | 1016.0 |
| 20260904143643 | 56 | 16 | 0.0 | 0.0 | 0.00 | 0.00 | 0.00 | 82 | 1016.0 |
| 20260904143143 | 56 | 16 | 0.0 | 0.0 | 0.00 | 0.00 | 0.00 | 81 | 1015.9 |
| 20260904142630 | 57 | 16 | 0.0 | 0.0 | 0.00 | 0.00 | 0.00 | 80 | 1015.9 |
| 20260904142105 | 57 | 16 | 0.0 | 0.0 | 0.00 | 0.00 | 0.00 | 80 | 1015.9 |
| 20260904141603 | 57 | 16 | 0.0 | 0.0 | 0.00 | 0.00 | 0.00 | 81 | 1016.0 |
| 20260904141054 | 56 | 16 | 0.0 | 0.0 | 0.00 | 0.00 | 0.00 | 82 | 1015.9 |
| 20260904140535 | 56 | 16 | 0.0 | 0.0 | 0.00 | 0.00 | 0.00 | 82 | 1015.8 |
| 20260904140008 | 57 | 16 | 0.0 | 0.0 | 0.00 | 0.00 | 0.00 | 82 | 1016.0 |
| 20260904135509 | 56 | 16 | 0.0 | 0.0 | 0.00 | 0.00 | 0.00 | 82 | 1016.0 |
| 20260904134953 | 56 | 16 | 0.0 | 0.0 | 0.00 | 0.00 | 0.00 | 82 | 1016.0 |
| 20260904134447 | 56 | 16 | 0.0 | 0.0 | 0.00 | 0.00 | 0.00 | 82 | 1016.1 |
| 20260904133945 | 56 | 16 | 0.0 | 0.0 | 0.00 | 0.00 | 0.00 | 82 | 1016.0 |
| 20260904133405 | 57 | 16 | 0.0 | 0.0 | 0.00 | 0.00 | 0.00 | 82 | 1016.1 |
| 20260904132851 | 57 | 16 | 0.0 | 0.0 | 0.00 | 0.00 | 0.00 | 82 | 1016.1 |
| 20260904132345 | 57 | 16 | 0.0 | 0.0 | 0.00 | 0.00 | 0.00 | 82 | 1016.1 |
| 20260904132319 | 57 | 16 | 0.0 | 0.0 | 0.00 | 0.00 | 0.00 | 82 | 1016.2 |
| 20260904131323 | 57 | 16 | 0.0 | 0.0 | 0.00 | 0.00 | 0.00 | 82 | 1016.2 |
| 20260904130813 | 57 | 16 | 0.0 | 0.0 | 0.00 | 0.00 | 0.00 | 82 | 1016.2 |
| 20260904130306 | 56 | 16 | 0.0 | 0.0 | 0.00 | 0.00 | 0.00 | 83 | 1016.3 |
| 20260904125806 | 57 | 16 | 0.0 | 0.0 | 0.00 | 0.00 | 0.00 | 82 | 1016.4 |
| 20260904125305 | 57 | 16 | 0.0 | 0.0 | 0.00 | 0.00 | 0.00 | 82 | 1016.5 |
| 20260904124755 | 57 | 16 | 0.0 | 0.0 | 0.00 | 0.00 | 0.00 | 81 | 1016.6 |
| 20260904124255 | 57 | 16 | 0.0 | 0.0 | 0.00 | 0.00 | 0.00 | 81 | 1016.5 |
| 20260904123958 | 58 | 16 | 0.0 | 0.0 | 0.00 | 0.00 | 0.00 | 80 | 1016.6 |
| 20260904123227 | 58 | 16 | 0.0 | 0.0 | 0.00 | 0.00 | 0.00 | 80 | 1016.6 |
| 20260904122710 | 58 | 16 | 0.0 | 0.0 | 0.00 | 0.00 | 0.00 | 80 | 1016.8 |
| 20260904122159 | 58 | 16 | 0.0 | 0.0 | 0.00 | 0.00 | 0.00 | 79 | 1016.8 |
| 20260904121643 | 58 | 16 | 0.0 | 0.0 | 0.00 | 0.00 | 0.00 | 79 | 1016.9 |
| 20260904121131 | 58 | 16 | 0.0 | 0.0 | 0.00 | 0.00 | 0.00 | 79 | 1017.0 |
| 20260904120614 | 58 | 16 | 0.0 | 0.0 | 0.00 | 0.00 | 0.00 | 78 | 1017.0 |
| 20260904120059 | 59 | 16 | 0.0 | 0.0 | 0.00 | 0.00 | 0.00 | 78 | 1016.9 |
| 20260904115546 | 59 | 16 | 0.0 | 0.0 | 0.00 | 0.00 | 0.00 | 77 | 1016.9 |
| 20260904115511 | 59 | 16 | 0.0 | 0.0 | 0.00 | 0.00 | 0.00 | 76 | 1017.0 |
| 20260904114515 | 60 | 16 | 0.0 | 0.0 | 0.00 | 0.00 | 0.00 | 75 | 1017.0 |
| 20260904114006 | 60 | 16 | 0.0 | 0.0 | 0.00 | 0.00 | 0.00 | 75 | 1017.0 |
| 20260904113447 | 60 | 16 | 0.0 | 0.0 | 0.00 | 0.00 | 0.00 | 74 | 1017.0 |
| 20260904112938 | 60 | 16 | 0.0 | 0.0 | 0.00 | 0.00 | 0.00 | 73 | 1017.3 |
| 20260904112419 | 61 | 16 | 0.0 | 0.0 | 0.00 | 0.00 | 0.00 | 72 | 1017.1 |
| 20260904111910 | 61 | 16 | 0.0 | 0.0 | 0.00 | 0.00 | 0.00 | 72 | 1017.3 |
| 20260904111354 | 61 | 16 | 0.0 | 0.0 | 0.00 | 0.00 | 0.00 | 71 | 1017.1 |
| 20260904110844 | 62 | 16 | 0.0 | 0.0 | 0.00 | 0.00 | 0.00 | 71 | 1017.0 |
| 20260904110604 | 61 | 16 | 0.0 | 0.0 | 0.00 | 0.00 | 0.00 | 72 | 1017.0 |
| 20260904105836 | 62 | 16 | 0.0 | 0.0 | 0.00 | 0.00 | 0.00 | 71 | 1017.0 |
| 20260904105543 | 62 | 16 | 0.0 | 0.0 | 0.00 | 0.00 | 0.00 | 71 | 1017.0 |
| 20260904104812 | 62 | 16 | 0.0 | 0.0 | 0.00 | 0.00 | 0.00 | 71 | 1017.0 |
| 20260904104310 | 62 | 16 | 0.0 | 0.0 | 0.00 | 0.00 | 0.00 | 70 | 1016.8 |
| 20260904104025 | 62 | 16 | 0.0 | 0.0 | 0.00 | 0.00 | 0.00 | 69 | 1016.9 |
| 20260904103733 | 63 | 16 | 0.0 | 0.0 | 0.00 | 0.00 | 0.00 | 68 | 1016.7 |
| 20260904103220 | 63 | 16 | 0.0 | 0.0 | 0.00 | 0.00 | 0.00 | 69 | 1016.5 |
| 20260904102220 | 63 | 16 | 0.0 | 0.0 | 0.00 | 0.00 | 0.00 | 68 | 1016.4 |
| 20260904101933 | 63 | 16 | 0.0 | 0.0 | 0.00 | 0.00 | 0.00 | 68 | 1016.3 |
| 20260904101212 | 63 | 16 | 0.0 | 3.0 | 0.00 | 0.00 | 0.00 | 68 | 1016.3 |
| 20260904100704 | 63 | 16 | 0.0 | 3.0 | 0.00 | 0.00 | 0.00 | 68 | 1016.2 |
| 20260904100154 | 63 | 16 | 0.0 | 0.0 | 0.00 | 0.00 | 0.00 | 67 | 1016.2 |
| 20260904095654 | 64 | 16 | 0.0 | 0.0 | 0.00 | 0.00 | 0.00 | 67 | 1016.2 |
| 20260904095151 | 63 | 16 | 0.0 | 0.0 | 0.00 | 0.00 | 0.00 | 67 | 1016.0 |
| 20260904094903 | 63 | 16 | 0.0 | 0.0 | 0.00 | 0.00 | 0.00 | 67 | 1015.9 |
| 20260904094128 | 63 | 16 | 0.0 | 0.0 | 0.00 | 0.00 | 0.00 | 67 | 1015.9 |
| 20260904093625 | 63 | 16 | 0.0 | 0.0 | 0.00 | 0.00 | 0.00 | 67 | 1015.9 |
| 20260904093113 | 63 | 16 | 0.0 | 0.0 | 0.00 | 0.00 | 0.00 | 67 | 1015.8 |
| 20260904092604 | 63 | 16 | 0.0 | 2.0 | 0.00 | 0.00 | 0.00 | 66 | 1015.8 |
| 20260904092046 | 63 | 16 | 0.0 | 2.0 | 0.00 | 0.00 | 0.00 | 66 | 1015.7 |
| 20260904091538 | 64 | 16 | 0.0 | 0.0 | 0.00 | 0.00 | 0.00 | 66 | 1015.6 |
| 20260904091249 | 64 | 16 | 0.0 | 0.0 | 0.00 | 0.00 | 0.00 | 66 | 1015.7 |
| 20260904090525 | 64 | 16 | 0.0 | 0.0 | 0.00 | 0.00 | 0.00 | 65 | 1015.6 |
| 20260904090010 | 64 | 16 | 0.0 | 0.0 | 0.00 | 0.00 | 0.00 | 65 | 1015.6 |
| 20260904085959 | 64 | 16 | 0.0 | 1.0 | 0.00 | 0.00 | 0.00 | 64 | 1015.7 |
| 20260904085008 | 64 | 16 | 0.0 | 2.0 | 0.00 | 0.00 | 0.00 | 64 | 1015.6 |
| 20260904084505 | 65 | 16 | 0.0 | 2.0 | 0.00 | 0.00 | 0.00 | 63 | 1015.6 |
| 20260904083954 | 65 | 16 | 0.0 | 1.0 | 0.00 | 0.00 | 0.00 | 63 | 1015.5 |
| 20260904083446 | 65 | 16 | 0.0 | 2.0 | 0.00 | 0.00 | 0.00 | 62 | 1015.4 |
| 20260904082937 | 65 | 16 | 0.0 | 2.0 | 0.00 | 0.00 | 0.00 | 61 | 1015.4 |
| 20260904082429 | 65 | 19 | 0.0 | 1.0 | 0.00 | 0.00 | 0.00 | 60 | 1015.3 |
| 20260904081918 | 66 | 19 | 0.0 | 2.0 | 0.00 | 0.00 | 0.00 | 60 | 1015.3 |
| 20260904081615 | 66 | 29 | 0.0 | 5.0 | 0.00 | 0.00 | 0.00 | 60 | 1015.2 |
| 20260904080849 | 67 | 29 | 0.0 | 5.0 | 0.00 | 0.00 | 0.00 | 58 | 1015.2 |
| 20260904080555 | 67 | 29 | 0.0 | 4.0 | 0.00 | 0.00 | 0.00 | 57 | 1015.1 |
| 20260904075838 | 67 | 29 | 0.0 | 4.0 | 0.00 | 0.00 | 0.00 | 56 | 1015.2 |
| 20260904075320 | 68 | 62 | 0.0 | 4.0 | 0.00 | 0.00 | 0.00 | 55 | 1015.3 |
| 20260904074812 | 68 | 62 | 0.0 | 4.0 | 0.00 | 0.00 | 0.00 | 54 | 1015.2 |
| 20260904074259 | 69 | 92 | 0.0 | 1.0 | 0.00 | 0.00 | 0.00 | 51 | 1015.1 |
| 20260904073755 | 70 | 92 | 0.0 | 0.0 | 0.00 | 0.00 | 0.00 | 47 | 1015.0 |
| 20260904073240 | 70 | 92 | 0.0 | 0.0 | 0.00 | 0.00 | 0.00 | 47 | 1014.8 |
| 20260904072730 | 70 | 92 | 0.0 | 0.0 | 0.00 | 0.00 | 0.00 | 47 | 1014.7 |
| 20260904072220 | 70 | 92 | 0.0 | 0.0 | 0.00 | 0.00 | 0.00 | 46 | 1014.6 |
| 20260904071710 | 70 | 92 | 0.0 | 0.0 | 0.00 | 0.00 | 0.00 | 47 | 1014.6 |
| 20260904071200 | 71 | 92 | 0.0 | 0.0 | 0.00 | 0.00 | 0.00 | 47 | 1014.6 |
| 20260904070650 | 71 | 92 | 0.0 | 0.0 | 0.00 | 0.00 | 0.00 | 46 | 1014.5 |
| 20260904070140 | 71 | 92 | 0.0 | 2.0 | 0.00 | 0.00 | 0.00 | 45 | 1014.5 |
| 20260904065630 | 71 | 92 | 0.0 | 2.0 | 0.00 | 0.00 | 0.00 | 45 | 1014.5 |
| 20260904065130 | 71 | 92 | 0.0 | 2.0 | 0.00 | 0.00 | 0.00 | 46 | 1014.4 |
| 20260904064624 | 72 | 90 | 0.0 | 2.0 | 0.00 | 0.00 | 0.00 | 44 | 1014.4 |
| 20260904064107 | 72 | 90 | 0.0 | 0.0 | 0.00 | 0.00 | 0.00 | 45 | 1014.4 |
| 20260904063602 | 72 | 90 | 0.0 | 0.0 | 0.00 | 0.00 | 0.00 | 44 | 1014.4 |
| 20260904063048 | 72 | 90 | 0.0 | 2.0 | 0.00 | 0.00 | 0.00 | 43 | 1014.4 |
| 20260904062548 | 72 | 90 | 0.0 | 2.0 | 0.00 | 0.00 | 0.00 | 44 | 1014.4 |
| 20260904062032 | 72 | 90 | 0.0 | 0.0 | 0.00 | 0.00 | 0.00 | 44 | 1014.3 |
| 20260904061522 | 73 | 90 | 0.0 | 0.0 | 0.00 | 0.00 | 0.00 | 43 | 1014.4 |
| 20260904061012 | 73 | 90 | 0.0 | 0.0 | 0.00 | 0.00 | 0.00 | 42 | 1014.4 |
| 20260904060512 | 73 | 90 | 0.0 | 0.0 | 0.00 | 0.00 | 0.00 | 42 | 1014.4 |
| 20260904055952 | 74 | 90 | 0.0 | 1.0 | 0.00 | 0.00 | 0.00 | 42 | 1014.4 |
| 20260904055433 | 74 | 90 | 0.0 | 1.0 | 0.00 | 0.00 | 0.00 | 42 | 1014.4 |
| 20260904054922 | 74 | 90 | 0.0 | 2.0 | 0.00 | 0.00 | 0.00 | 42 | 1014.5 |
| 20260904054405 | 74 | 90 | 0.0 | 2.0 | 0.00 | 0.00 | 0.00 | 41 | 1014.7 |
| 20260904053853 | 73 | 90 | 0.0 | 3.0 | 0.00 | 0.00 | 0.00 | 41 | 1014.7 |
| 20260904053338 | 73 | 90 | 0.0 | 3.0 | 0.00 | 0.00 | 0.00 | 43 | 1014.8 |
| 20260904052826 | 74 | 91 | 0.0 | 2.0 | 0.00 | 0.00 | 0.00 | 43 | 1014.8 |
| 20260904052322 | 74 | 91 | 0.0 | 2.0 | 0.00 | 0.00 | 0.00 | 42 | 1014.8 |
| 20260904051822 | 74 | 91 | 0.0 | 2.0 | 0.00 | 0.00 | 0.00 | 40 | 1014.8 |
| 20260904051313 | 74 | 91 | 0.0 | 2.0 | 0.00 | 0.00 | 0.00 | 41 | 1014.8 |
| 20260904050814 | 74 | 90 | 0.0 | 1.0 | 0.00 | 0.00 | 0.00 | 40 | 1014.9 |
| 20260904050302 | 74 | 91 | 0.0 | 2.0 | 0.00 | 0.00 | 0.00 | 40 | 1014.9 |
| 20260904045800 | 74 | 91 | 1.0 | 2.0 | 0.00 | 0.00 | 0.00 | 41 | 1015.0 |
| 20260904045259 | 74 | 91 | 0.0 | 2.0 | 0.00 | 0.00 | 0.00 | 41 | 1015.0 |
| 20260904044800 | 73 | 91 | 0.0 | 5.0 | 0.00 | 0.00 | 0.00 | 42 | 1015.1 |
| 20260904044258 | 73 | 91 | 0.0 | 5.0 | 0.00 | 0.00 | 0.00 | 39 | 1015.2 |
| 20260904043745 | 74 | 203 | 0.0 | 2.0 | 0.00 | 0.00 | 0.00 | 40 | 1015.2 |
| 20260904043229 | 73 | 203 | 0.0 | 2.0 | 0.00 | 0.00 | 0.00 | 40 | 1015.3 |
| 20260904042718 | 74 | 203 | 0.0 | 2.0 | 0.00 | 0.00 | 0.00 | 40 | 1015.4 |
| 20260904042211 | 74 | 203 | 0.0 | 1.0 | 0.00 | 0.00 | 0.00 | 40 | 1015.4 |
| 20260904041939 | 73 | 203 | 0.0 | 2.0 | 0.00 | 0.00 | 0.00 | 43 | 1015.5 |
| 20260904041152 | 73 | 203 | 0.0 | 2.0 | 0.00 | 0.00 | 0.00 | 39 | 1015.5 |
| 20260904040645 | 74 | 203 | 0.0 | 2.0 | 0.00 | 0.00 | 0.00 | 41 | 1015.6 |
| 20260904040404 | 74 | 203 | 0.0 | 2.0 | 0.00 | 0.00 | 0.00 | 42 | 1015.8 |
| 20260904035630 | 73 | 203 | 0.0 | 1.0 | 0.00 | 0.00 | 0.00 | 40 | 1015.9 |
| 20260904035119 | 74 | 203 | 0.0 | 2.0 | 0.00 | 0.00 | 0.00 | 40 | 1015.9 |
| 20260904034610 | 74 | 201 | 0.0 | 2.0 | 0.00 | 0.00 | 0.00 | 41 | 1016.1 |
| 20260904034107 | 74 | 201 | 0.0 | 2.0 | 0.00 | 0.00 | 0.00 | 43 | 1016.1 |
| 20260904034044 | 73 | 201 | 0.0 | 2.0 | 0.00 | 0.00 | 0.00 | 44 | 1016.2 |
| 20260904033047 | 73 | 201 | 0.0 | 2.0 | 0.00 | 0.00 | 0.00 | 42 | 1016.2 |
| 20260904032537 | 72 | 201 | 0.0 | 2.0 | 0.00 | 0.00 | 0.00 | 40 | 1016.3 |
| 20260904032256 | 73 | 200 | 0.0 | 4.0 | 0.00 | 0.00 | 0.00 | 40 | 1016.4 |
| 20260904031525 | 73 | 199 | 0.0 | 4.0 | 0.00 | 0.00 | 0.00 | 42 | 1016.4 |
| 20260904031019 | 73 | 219 | 0.0 | 2.0 | 0.00 | 0.00 | 0.00 | 39 | 1016.6 |
| 20260904030509 | 73 | 219 | 0.0 | 2.0 | 0.00 | 0.00 | 0.00 | 42 | 1016.7 |
| 20260904030004 | 73 | 219 | 0.0 | 2.0 | 0.00 | 0.00 | 0.00 | 43 | 1016.7 |
| 20260904025458 | 73 | 210 | 0.0 | 1.0 | 0.00 | 0.00 | 0.00 | 41 | 1016.8 |
| 20260904024957 | 74 | 210 | 0.0 | 4.0 | 0.00 | 0.00 | 0.00 | 44 | 1016.9 |
| 20260904024657 | 73 | 210 | 0.0 | 4.0 | 0.00 | 0.00 | 0.00 | 41 | 1017.0 |
| 20260904023935 | 72 | 348 | 0.0 | 2.0 | 0.00 | 0.00 | 0.00 | 42 | 1016.9 |
| 20260904023430 | 71 | 348 | 0.0 | 4.0 | 0.00 | 0.00 | 0.00 | 43 | 1017.0 |
| 20260904023140 | 71 | 355 | 0.0 | 4.0 | 0.00 | 0.00 | 0.00 | 46 | 1017.1 |
| 20260904022408 | 72 | 355 | 1.0 | 4.0 | 0.00 | 0.00 | 0.00 | 45 | 1017.3 |
| 20260904021907 | 73 | 355 | 0.0 | 2.0 | 0.00 | 0.00 | 0.00 | 44 | 1017.5 |
| 20260904021400 | 72 | 31 | 0.0 | 2.0 | 0.00 | 0.00 | 0.00 | 46 | 1017.5 |
| 20260904020847 | 72 | 30 | 0.0 | 2.0 | 0.00 | 0.00 | 0.00 | 44 | 1017.6 |
| 20260904020337 | 71 | 31 | 0.0 | 3.0 | 0.00 | 0.00 | 0.00 | 45 | 1017.7 |
| 20260904020056 | 71 | 31 | 0.0 | 4.0 | 0.00 | 0.00 | 0.00 | 44 | 1017.9 |
| 20260904015321 | 72 | 31 | 0.0 | 4.0 | 0.00 | 0.00 | 0.00 | 45 | 1018.0 |
| 20260904014811 | 72 | 301 | 0.0 | 3.0 | 0.00 | 0.00 | 0.00 | 47 | 1018.1 |
| 20260904014301 | 72 | 300 | 0.0 | 3.0 | 0.00 | 0.00 | 0.00 | 46 | 1018.2 |
| 20260904014021 | 71 | 298 | 0.0 | 4.0 | 0.00 | 0.00 | 0.00 | 47 | 1018.3 |
| 20260904013249 | 71 | 311 | 0.0 | 4.0 | 0.00 | 0.00 | 0.00 | 48 | 1018.5 |
| 20260904012740 | 71 | 5 | 0.0 | 2.0 | 0.00 | 0.00 | 0.00 | 48 | 1018.5 |
| 20260904012229 | 71 | 9 | 0.0 | 1.0 | 0.00 | 0.00 | 0.00 | 50 | 1018.6 |
| 20260904011728 | 70 | 9 | 0.0 | 1.0 | 0.00 | 0.00 | 0.00 | 48 | 1018.8 |
| 20260904011212 | 71 | 9 | 0.0 | 1.0 | 0.00 | 0.00 | 0.00 | 49 | 1019.0 |
| 20260904010933 | 71 | 10 | 0.0 | 1.0 | 0.00 | 0.00 | 0.00 | 49 | 1019.1 |
| 20260904010157 | 70 | 10 | 0.0 | 5.0 | 0.00 | 0.00 | 0.00 | 50 | 1019.1 |
| 20260904005652 | 69 | 10 | 0.0 | 5.0 | 0.00 | 0.00 | 0.00 | 50 | 1019.1 |
| 20260904005143 | 70 | 294 | 0.0 | 4.0 | 0.00 | 0.00 | 0.00 | 47 | 1019.1 |
| 20260904004642 | 68 | 293 | 0.0 | 2.0 | 0.00 | 0.00 | 0.00 | 51 | 1019.1 |
| 20260904004125 | 69 | 292 | 0.0 | 2.0 | 0.00 | 0.00 | 0.00 | 51 | 1019.2 |
| 20260904003620 | 69 | 295 | 0.0 | 2.0 | 0.00 | 0.00 | 0.00 | 51 | 1019.2 |
| 20260904003108 | 69 | 296 | 0.0 | 2.0 | 0.00 | 0.00 | 0.00 | 50 | 1019.3 |
| 20260904002603 | 69 | 294 | 0.0 | 3.0 | 0.00 | 0.00 | 0.00 | 54 | 1019.3 |
| 20260904002052 | 69 | 24 | 0.0 | 2.0 | 0.00 | 0.00 | 0.00 | 52 | 1019.3 |
| 20260904001815 | 68 | 25 | 0.0 | 0.0 | 0.00 | 0.00 | 0.00 | 51 | 1019.4 |
| 20260904001037 | 68 | 25 | 0.0 | 1.0 | 0.00 | 0.00 | 0.00 | 55 | 1019.5 |
| 20260904000739 | 68 | 25 | 0.0 | 1.0 | 0.00 | 0.00 | 0.00 | 56 | 1019.5 |
| 20260904000625 | 67 | 25 | 0.0 | 1.0 | 0.00 | 0.00 | 0.00 | 51 | 1019.5 |